SKW6475 KPHX-KGPI

Flight info

Callsign SKW6475
Flight time N/A
Altitude 38000
Route QUAKY1 GCN PATIO
Aircraft CRJ7/M-SDFGIRWY/S

Departure

Time N/A
Airport Phoenix Sky Harbor International Airport (KPHX)

Arrival

Time 2026-04-29 04:21
Airport Glacier Park International Airport (KGPI)
Time Latitude Longitude Altitude Speed Heading
2026-04-29 03:32 42.68455 -112.85748 38000 ft 490 kts 350°
2026-04-29 03:32 42.71816 -112.86533 38000 ft 490 kts 350°
2026-04-29 03:33 42.78541 -112.88103 37999 ft 490 kts 350°
2026-04-29 03:33 42.85264 -112.89681 37999 ft 490 kts 350°
2026-04-29 03:34 42.91937 -112.91251 37999 ft 490 kts 350°
2026-04-29 03:34 42.98665 -112.92837 37999 ft 490 kts 350°
2026-04-29 03:35 43.05387 -112.94421 38000 ft 490 kts 350°
2026-04-29 03:35 43.12112 -112.96013 38000 ft 490 kts 350°
2026-04-29 03:36 43.18837 -112.97609 38000 ft 490 kts 350°
2026-04-29 03:36 43.25563 -112.99206 38000 ft 490 kts 350°
2026-04-29 03:37 43.32286 -113.00806 38000 ft 490 kts 350°
2026-04-29 03:37 43.39008 -113.02411 38001 ft 490 kts 349°
2026-04-29 03:38 43.45734 -113.04021 38000 ft 490 kts 350°
2026-04-29 03:38 43.52456 -113.05634 37999 ft 490 kts 350°
2026-04-29 03:39 43.59181 -113.07246 37999 ft 490 kts 349°
2026-04-29 03:39 43.65905 -113.08868 38000 ft 490 kts 350°
2026-04-29 03:40 43.72629 -113.10490 38000 ft 491 kts 350°
2026-04-29 03:40 43.79354 -113.12120 38001 ft 491 kts 349°
2026-04-29 03:41 43.86080 -113.13748 38000 ft 491 kts 349°
2026-04-29 03:41 43.92802 -113.15381 37999 ft 491 kts 349°
2026-04-29 03:42 43.99530 -113.17021 37999 ft 491 kts 349°
2026-04-29 03:42 44.06254 -113.18665 38001 ft 491 kts 349°
2026-04-29 03:43 44.12983 -113.20310 38002 ft 491 kts 349°
2026-04-29 03:43 44.19711 -113.21959 38002 ft 491 kts 349°
2026-04-29 03:44 44.26439 -113.23617 38004 ft 491 kts 349°
2026-04-29 03:44 44.33172 -113.25276 38001 ft 491 kts 349°
2026-04-29 03:45 44.39900 -113.26940 37999 ft 491 kts 349°
2026-04-29 03:45 44.46637 -113.28605 37998 ft 491 kts 349°
2026-04-29 03:46 44.53363 -113.30275 37999 ft 491 kts 349°
2026-04-29 03:46 44.60098 -113.31953 37999 ft 491 kts 349°
2026-04-29 03:47 44.66783 -113.33615 37999 ft 491 kts 349°
2026-04-29 03:47 44.73516 -113.35300 38003 ft 491 kts 349°
2026-04-29 03:48 44.80251 -113.36990 38002 ft 492 kts 349°
2026-04-29 03:48 44.86987 -113.38682 38000 ft 492 kts 349°
2026-04-29 03:49 44.93721 -113.40376 37999 ft 492 kts 349°
2026-04-29 03:49 45.00459 -113.42076 37999 ft 492 kts 349°
2026-04-29 03:50 45.07196 -113.43782 37998 ft 492 kts 349°
2026-04-29 03:50 45.13934 -113.45488 38001 ft 492 kts 349°
2026-04-29 03:51 45.20670 -113.47201 37999 ft 492 kts 349°
2026-04-29 03:51 45.27404 -113.48918 37999 ft 492 kts 349°
2026-04-29 03:52 45.34142 -113.50635 37999 ft 492 kts 349°
2026-04-29 03:52 45.40879 -113.52360 37999 ft 492 kts 349°
2026-04-29 03:53 45.47615 -113.54090 37999 ft 492 kts 349°
2026-04-29 03:53 45.54347 -113.55822 37999 ft 492 kts 349°
2026-04-29 03:54 45.61086 -113.57561 37999 ft 492 kts 349°
2026-04-29 03:54 45.67821 -113.59300 37999 ft 492 kts 349°
2026-04-29 03:55 45.74557 -113.61047 37999 ft 492 kts 349°
2026-04-29 03:55 45.81290 -113.62798 38001 ft 492 kts 349°
2026-04-29 03:56 45.88030 -113.64552 38000 ft 492 kts 349°
2026-04-29 03:56 45.94721 -113.66295 38001 ft 492 kts 349°
2026-04-29 03:57 46.01456 -113.68061 38004 ft 492 kts 349°
2026-04-29 03:57 46.08196 -113.69832 38000 ft 492 kts 349°
2026-04-29 03:58 46.14937 -113.71603 38000 ft 492 kts 349°
2026-04-29 03:58 46.21678 -113.73377 38000 ft 492 kts 349°
2026-04-29 03:59 46.28416 -113.75160 38001 ft 492 kts 349°
2026-04-29 03:59 46.35159 -113.76949 37999 ft 492 kts 349°
2026-04-29 04:00 46.41900 -113.78737 37999 ft 492 kts 349°
2026-04-29 04:00 46.48639 -113.80532 38000 ft 492 kts 349°
2026-04-29 04:01 46.55380 -113.82332 38001 ft 492 kts 349°
2026-04-29 04:01 46.62120 -113.84136 38003 ft 493 kts 349°
2026-04-29 04:02 46.68864 -113.85943 38004 ft 493 kts 349°
2026-04-29 04:02 46.75607 -113.87759 38002 ft 493 kts 349°
2026-04-29 04:03 46.82350 -113.89580 38003 ft 493 kts 349°
2026-04-29 04:03 46.89093 -113.91402 38001 ft 493 kts 349°
2026-04-29 04:04 46.95836 -113.93231 38002 ft 493 kts 349°
2026-04-29 04:04 47.02587 -113.95067 38002 ft 493 kts 349°
2026-04-29 04:05 47.09335 -113.96903 38004 ft 493 kts 349°
2026-04-29 04:05 47.16039 -113.98737 38000 ft 493 kts 349°
2026-04-29 04:06 47.22785 -114.00583 37999 ft 493 kts 349°
2026-04-29 04:06 47.29531 -114.02437 37999 ft 493 kts 349°
2026-04-29 04:07 47.36280 -114.04292 37998 ft 493 kts 349°
2026-04-29 04:07 47.43024 -114.06153 37998 ft 493 kts 349°
2026-04-29 04:08 47.46384 -114.07082 37536 ft 486 kts 349°
2026-04-29 04:08 47.49677 -114.07998 36937 ft 480 kts 349°
2026-04-29 04:08 47.52958 -114.08907 36342 ft 478 kts 349°
2026-04-29 04:08 47.56225 -114.09814 35739 ft 478 kts 349°
2026-04-29 04:09 47.59495 -114.10723 35142 ft 479 kts 349°
2026-04-29 04:09 47.62776 -114.11634 34545 ft 480 kts 349°
2026-04-29 04:09 47.66061 -114.12551 33955 ft 481 kts 349°
2026-04-29 04:09 47.69350 -114.13517 33355 ft 482 kts 346°
2026-04-29 04:10 47.72580 -114.14858 32762 ft 482 kts 342°
2026-04-29 04:10 47.75771 -114.16412 32168 ft 483 kts 340°
2026-04-29 04:10 47.78903 -114.18227 31572 ft 484 kts 337°
2026-04-29 04:10 47.82012 -114.20173 30979 ft 486 kts 336°
2026-04-29 04:11 47.84078 -114.21472 30587 ft 487 kts 336°
2026-04-29 04:11 47.88237 -114.24005 29802 ft 489 kts 338°
2026-04-29 04:11 47.90376 -114.25276 29401 ft 490 kts 338°
2026-04-29 04:11 47.94503 -114.27740 28610 ft 477 kts 338°
2026-04-29 04:12 47.97568 -114.29573 27993 ft 472 kts 338°
2026-04-29 04:12 47.99615 -114.30800 27570 ft 468 kts 338°
2026-04-29 04:12 48.02631 -114.32602 26941 ft 464 kts 338°
2026-04-29 04:12 48.05621 -114.34397 26316 ft 463 kts 338°
2026-04-29 04:13 48.08615 -114.36195 25690 ft 464 kts 338°
2026-04-29 04:13 48.11615 -114.38001 25067 ft 465 kts 338°
2026-04-29 04:13 48.14579 -114.39779 24453 ft 466 kts 338°
2026-04-29 04:13 48.17588 -114.41595 23830 ft 466 kts 338°
2026-04-29 04:14 48.20598 -114.43413 23208 ft 467 kts 338°
2026-04-29 04:14 48.23610 -114.45228 22584 ft 467 kts 338°
2026-04-29 04:14 48.26588 -114.47032 21958 ft 454 kts 338°
2026-04-29 04:14 48.29477 -114.48782 21332 ft 442 kts 338°
2026-04-29 04:15 48.32356 -114.50186 20694 ft 431 kts 351°
2026-04-29 04:15 48.35260 -114.50093 19957 ft 393 kts 14°
2026-04-29 04:15 48.37516 -114.48707 18955 ft 321 kts 32°
2026-04-29 04:15 48.39253 -114.46730 16491 ft 312 kts 43°
2026-04-29 04:16 48.40812 -114.44503 14202 ft 304 kts 45°
2026-04-29 04:16 48.42070 -114.42072 12206 ft 288 kts 60°
2026-04-29 04:16 48.42935 -114.39454 10599 ft 268 kts 69°
2026-04-29 04:16 48.43537 -114.36921 9170 ft 250 kts 73°
2026-04-29 04:17 48.44021 -114.34404 7358 ft 250 kts 76°
2026-04-29 04:17 48.44354 -114.31867 6229 ft 248 kts 84°
2026-04-29 04:17 48.44418 -114.29231 5561 ft 261 kts 95°
2026-04-29 04:17 48.44012 -114.26486 5349 ft 274 kts 111°
2026-04-29 04:18 48.43193 -114.23883 5378 ft 273 kts 120°
2026-04-29 04:18 48.42166 -114.21557 5298 ft 262 kts 126°
2026-04-29 04:18 48.40998 -114.19474 5026 ft 258 kts 141°
2026-04-29 04:18 48.39468 -114.18276 4725 ft 242 kts 171°
2026-04-29 04:19 48.37883 -114.18453 4296 ft 217 kts 202°
2026-04-29 04:19 48.36738 -114.19626 4055 ft 181 kts 218°
2026-04-29 04:19 48.35804 -114.20605 3826 ft 153 kts 216°
2026-04-29 04:19 48.34975 -114.21489 3689 ft 142 kts 214°
2026-04-29 04:20 48.34156 -114.22330 3540 ft 144 kts 214°
2026-04-29 04:20 48.33318 -114.23192 3365 ft 148 kts 215°
2026-04-29 04:20 48.32469 -114.24082 3168 ft 146 kts 214°
2026-04-29 04:20 48.31671 -114.24901 2985 ft 127 kts 214°
2026-04-29 04:21 48.31069 -114.25529 2977 ft 83 kts 215°
2026-04-29 04:21 48.30723 -114.25889 2975 ft 31 kts 213°
2026-04-29 04:21 48.30621 -114.25814 2976 ft 15 kts 79°
2026-04-29 04:21 48.30695 -114.25711 2976 ft 15 kts 35°
2026-04-29 04:22 48.30779 -114.25622 2976 ft 15 kts 35°
2026-04-29 04:22 48.30815 -114.25533 2977 ft 8 kts 112°
2026-04-29 04:22 48.30772 -114.25482 2977 ft 8 kts 171°
2026-04-29 04:22 48.30731 -114.25431 2977 ft 7 kts 125°
2026-04-29 04:23 48.30726 -114.25419 2977 ft 0 kts 124°